GREENECSD Weather Reports


time (UTC)temp
C
wind
direction
speed
KPH
gust
KPH
rain 1hr
cm
rain 24hr
cm
rain mn
cm
humidity
%
barometer
mb
20260504081517 6 217 4.8 8.0 0.00 0.00 0.00 61 1009.8
20260504050013 8 252 1.6 3.2 0.00 0.00 0.00 56 1009.7
20260504044529 9 239 3.2 8.0 0.00 0.00 0.00 54 1009.6
20260504043023 10 285 0.0 3.2 0.00 0.00 0.00 55 1009.7
20260504041524 10 219 0.0 8.0 0.00 0.00 0.00 50 1009.8
20260504040010 10 210 6.4 11.3 0.00 0.00 0.00 49 1009.7
20260504034514 11 217 3.2 4.8 0.00 0.00 0.00 47 1009.6
20260504033016 11 269 3.2 6.4 0.00 0.00 0.00 47 1009.8
20260504031526 11 205 3.2 8.0 0.00 0.00 0.00 48 1010.0
20260504030026 10 316 0.0 3.2 0.00 0.00 0.00 50 1010.1
20260504024510 10 240 1.6 11.3 0.00 0.00 0.00 50 1010.3
20260504023016 10 300 8.0 24.1 0.00 0.00 0.00 50 1010.5
20260504021520 10 316 4.8 16.1 0.00 0.00 0.00 51 1010.7
20260504020024 10 314 6.4 12.9 0.00 0.00 0.00 52 1010.5
20260504014507 9 348 3.2 11.3 0.00 0.00 0.00 54 1010.5
20260504013018 10 317 0.0 3.2 0.00 0.00 0.00 52 1010.4
20260504011520 10 340 1.6 8.0 0.00 0.00 0.00 51 1010.2
20260504010023 10 316 0.0 3.2 0.00 0.00 0.00 53 1010.2
20260504004529 10 316 0.0 3.2 0.00 0.00 0.00 51 1010.1
20260504003008 10 316 0.0 3.2 0.00 0.00 0.00 50 1009.7
20260504001518 11 219 0.0 3.2 0.00 0.00 0.00 46 1009.4
20260504000046 11 219 1.6 4.8 0.00 0.00 0.00 44 1009.2
20260503234526 11 226 3.2 8.0 0.00 0.00 0.00 42 1009.2
20260503233027 12 240 3.2 8.0 0.00 0.00 0.00 40 1009.0
20260503231512 12 324 1.6 8.0 0.00 0.00 0.00 42 1009.0
20260503230020 12 305 4.8 11.3 0.00 0.00 0.00 40 1009.0
20260503224522 12 330 6.4 12.9 0.00 0.00 0.00 40 1009.1
20260503223035 12 278 1.6 11.3 0.00 0.00 0.00 40 1009.2
20260503221525 12 323 6.4 14.5 0.00 0.00 0.00 42 1009.3
20260503220016 12 359 4.8 19.3 0.00 0.00 0.00 42 1009.4
20260503214524 11 303 6.4 17.7 0.00 0.00 0.00 45 1009.5
20260503213024 11 279 6.4 14.5 0.00 0.00 0.00 42 1009.5
20260503211527 11 314 4.8 20.9 0.00 0.00 0.00 44 1009.5
20260503210027 11 312 14.5 24.1 0.00 0.00 0.00 42 1009.6
20260503204518 12 349 6.4 20.9 0.00 0.00 0.00 39 1009.2
20260503203029 12 346 14.5 30.6 0.00 0.00 0.00 39 1009.3
20260503201532 11 336 11.3 29.0 0.00 0.00 0.00 40 1009.4
20260503200012 11 304 11.3 25.7 0.00 0.00 0.00 38 1009.5
20260503194518 11 346 12.9 24.1 0.00 0.00 0.00 39 1009.6
20260503193028 11 345 8.0 19.3 0.00 0.00 0.00 39 1009.7
20260503191525 11 314 11.3 24.1 0.00 0.00 0.00 37 1009.9
20260503190012 11 304 11.3 24.1 0.00 0.00 0.00 36 1010.0
20260503184514 11 320 11.3 27.4 0.00 0.00 0.00 35 1010.4
20260503183025 11 338 14.5 25.7 0.00 0.00 0.00 35 1010.6
20260503181527 11 297 12.9 35.4 0.00 0.00 0.00 36 1010.7
20260503180029 10 351 9.7 24.1 0.00 0.00 0.00 38 1010.9
20260503174516 10 355 14.5 24.1 0.00 0.00 0.00 37 1011.0
20260503173036 10 352 17.7 29.0 0.00 0.00 0.00 36 1011.3
20260503171533 10 307 11.3 22.5 0.00 0.00 0.00 38 1011.4